TITAN 3C TRANSTAGE DEB, 4907

Orbit data source: Space-Track

TITAN 3C TRANSTAGE DEB, 4907 is space debris in LEO originally from a launch on Fri, 15 Oct 1965 UTC launched from the Air Force Eastern Test Range (AFETR). Debris objects in space refer to the collection of defunct objects orbiting the Earth. Examples of debris include non-operational satellites, rocket bodies, and fragments generated from explosions, collisions, or faulty payload assembly.

Loading next visibility...
Identifier
4907, 1965-082SV
Orbit
LEO
Country
Flag of USUS
Related business
Manufacturer
Unknown
Mission
Spacecraft
Bus & Motor
Unknown
Mass
Unknown
Launch date (UTC)
1965-10-15 (60 years ago)
Launch vehicle
Unknown
Launch site
Air Force Eastern Test Range (AFETR)
Object type
Payload
Rocket body
Debris
Shape & HBR
Unknown shape, 0.1 m
Radar Cross Section
Small (<0.1 m²)

Expand to show TLE details & history
Last TLE update: 9 hours ago

TLE from 9 hours ago
0 TITAN 3C TRANSTAGE DEB
1 04907U 65082SV  25286.95958099  .00001017  00000-0  19811-3 0  9990
2 04907  32.4865  26.3858 0046521 264.8097  94.7243 14.60194418182206
Epoch: 2025-10-13T23:01Z
TLE epoch observation values (Epoch: 2025-10-13T23:01:47.797Z)
Latitude
-0.00004°
Longitude
18.18171°
Altitude
694.093 km
Speed
7.51 km/s
True Right ascension
01h 45m 32s
True Declination
0° 00' 00"
Sunlit
Object was in full shadow at epoch
Visualization orbit readout
Latitude
Unknown
Longitude
Unknown
Altitude
Unknown
Speed
Unknown
Apparent Right ascension
Unknown
Apparent Declination
Unknown
Sunlit
N/A
Visualization observer readout
Local Sidereal Time
02:50:23
Azimuth
Unknown
Elevation
Unknown
Doppler factor
Unknown
Orbital elements
Apogee altitude
728.996 km
Perigee altitude
663.176 km
Semi-major axis
7,074.223 km
Eccentricity
0.00465
Inclination
32.4865°
RAAN
26.3858°
Arg. of periapsis
264.8097°
True anomaly
95.25532°
Mean anomaly
94.7243°
Eccentric anomaly
94.98984°
Mean motion
3.64775 °/min
Orbital period
98.69 mins
BSTAR
0.00019811

Documentation

Showing up to 5 results
|